Weather Roundup
Issued by NWS Chicago, IL

Home | Current Version | Previous Version | Graphics & Text | Print | Product List | Glossary On
Versions: 1 2 3 4 5 6 7 8 9 10 11 12 13 14 15 16 17 18 19 20 21 22 23 24 25 26 27 28 29 30 31 32 33 34 35 36 37 38 39 40 41 42 43 44 45 46 47 48 49 50
000
NZUS59 KLOT 180158
HRRLOT

CHICAGO AREA WEATHER ROUNDUP
NATIONAL WEATHER SERVICE CHICAGO/ROMEOVILLE IL
800 PM CST WED DEC 17 2014

NOTE: "FAIR" INDICATES FEW OR NO CLOUDS BELOW 12,000 FEET WITH NO
SIGNIFICANT WEATHER AND/OR OBSTRUCTIONS TO VISIBILITY.

* THESE STATIONS ARE NOT UNDER NWS QUALITY CONTROL. THEY ALSO MAY NOT
  REPORT WEATHER SUCH AS PRECIPITATION OR FOG.

ILZ005-006-012>014-019>023-180300-
NORTHEAST ILLINOIS

CITY           SKY/WX    TMP DP  RH WIND       PRES   REMARKS
OHARE          CLOUDY    25  16  68 W9        30.27R WCI  15
MIDWAY         NOT AVBL
AURORA         CLOUDY    25  16  68 W8        30.28S WCI  16
WAUKEGAN       NOT AVBL
DUPAGE AIRPORT CLOUDY    24  16  71 W7        30.26S WCI  16
WHEELING       CLOUDY    25  15  66 NW9       30.29R WCI  15
NORTHERLY IS     N/A     27  17  66 W8          N/A  WCI  19
$$

WIZ051-052-058>065-066-070>072-180300-
SOUTHEAST WISCONSIN

CITY           SKY/WX    TMP DP  RH WIND       PRES   REMARKS
MILWAUKEE      CLEAR     23  13  65 W9        30.25R WCI  13
KENOSHA*       PTCLDY    22  15  75 NW8       30.26R WCI  12
WAUKESHA       CLEAR     19  14  79 W9        30.25R WCI   9
$$

INZ001>003-010>013-019-020-180300-
NORTHWEST INDIANA

CITY           SKY/WX    TMP DP  RH WIND       PRES   REMARKS
GARY*          CLOUDY    28  18  64 W10       30.29R WCI  19
MICHIGAN CITY* NOT AVBL
RENSSELAER*    NOT AVBL
$$

LMZ740>746-180300-
SOUTHERN LAKE MICHIGAN

STATION/POSITION TIME  SKY/WX   TEMP WIND        PRES    VSBY
                                AIR  DIR/SP/G
                 (UTC)          (F)  (DEG/KT/KT) (MB)    (MI)
HARRISON CRIB    0100            26  290/ 11/ 13   N/A
BURNHAM HARBOR   0100            27  290/  7/ 11   N/A
CALUMET HARBOR   0100            25  260/  5/  9 1023.9R
BURNS HARBOR     NOT AVBL
MICHIGAN CITY    NOT AVBL
$$

ABBREVIATIONS USED IN REMARKS
   TC - TEMPERATURE IN CELSIUS
  WCI - WIND CHILL INDEX
   HX - HEAT INDEX
  VSB - VISIBILITY
$$



USA.gov is the U.S. government's official web portal to all federal, state and local government web resources and services.